Location: The Saddle
(36.8333°N, 80.3417°W)
Time: 02:36:44
(UTC-05:00)

A-11 Canister half - Pass Details

Date: 16 December 2023
Orbit: 1526 x 1682 km, 47.3° (Epoch: 01 March)

Event Time Altitude Azimuth Distance (km) Brightness Sun altitude
Rises 19:08:05 0° 282° (WNW) 4,922 12.7 -23.6°
Reaches altitude 10° 19:11:29 10° 289° (WNW) 3,941 11.9 -24.2°
Maximum altitude 19:21:09 46° 1° (N) 2,139 9.6 -26.1°
Enters shadow 19:24:28 37° 43° (NE) 2,420 9.6 -26.8°
